Location: Hilton Head Island
(32.2163°N, 80.7526°W)
Time: 15:22:43
(UTC-04:00)

Vanguard 2 Rocket - Pass Details

Date: 18 February 2026
Orbit: 553 x 3286 km, 32.9° (Epoch: 10 March)

Event Time Altitude Azimuth Distance (km) Brightness Sun altitude
Rises 12:31:57 0° 243° (WSW) 7,214 11.7 46.3°
Reaches altitude 10° 12:36:47 10° 242° (WSW) 6,229 11.5 46.3°
Maximum altitude 12:56:43 77° 161° (SSE) 2,861 10.6 46.1°
Drops below altitude 10° 13:10:15 10° 78° (ENE) 4,454 10.3 45.6°
Sets 13:13:05 0° 77° (ENE) 5,152 10.6 45.5°
